星链-4622 (STARLINK-4622 )

导读 | 星芒AI

STARLINK-4622 是 SpaceX 星链计划中的一颗低轨通信卫星,属于第 21 批星链组网卫星。该卫星于 2023 年发射,运行在约 550 公里的轨道高度,旨在为全球用户提供高速互联网服务。它采用先进的推进和通信技术,具备自动避碰功能,以减少与其他卫星或太空碎片的碰撞风险。星链项目通过部署大量此类卫星,构建覆盖全球的宽带网络,尤其服务于偏远地区。STARLINK-4622 在提升全球互联网接入能力方面发挥着重要作用。

基本信息
目录编号:
53648
目录名称:
STARLINK-4622
国际标识:
2022-105A
轨道中心:
EARTH
卫星名称:
星链-4622
卫星全名:
星链-4622 (STARLINK-4622 )
卫星状态:
在轨 (已飞行1166 天)
发射日期:
2022-08-31 UTC
国别 :
美国 (US)
星等 :
--
轨道信息
数据来源 国际轨道数据
星历时间: 2025-11-08T22:30:09+0800
1天前
查看轨道信息
半长轴: 6941.141km
偏心率: 0.0004486
轨道倾角: 97.599°
近地点辐角 71.269°
升交点赤经 191.674°
平近点角 288.902°
近地点: 559.892km
远地点: 566.12km
周期: 95.919分钟
每日圈数: 15.012622
详细信息
固有亮度:
5
最大亮度:
2.5
卫星平台:
Starlink v1.5
覆盖范围:
全球
运营商:
太空探索技术公司
运营商所在国:
美国
制造商(研发单位):
太空探索技术公司
制造商所在国:
美国
使用方式:
暂无
卫星简介
星链(Starlink)计划是由太空探索技术公司(SpaceX)提出的一个巨型低轨卫星互联网星座项目,计划在2019年至2024年间在太空搭建由约1.2万颗卫星组成的“星链”网络,其中1584颗将部署在地球上空550千米处的近地轨道,并从2020年开始工作。该卫星仍在工作。
2D轨道图
3D轨道图
轨道高度分析图
轨道倾角分析图
轨道综合分析图
查看轨道综合分析图